TimeMST,TemperatureF,Dew PointF,Humidity,Sea Level PressureIn,VisibilityMPH,Wind Direction,Wind SpeedMPH,Gust SpeedMPH,PrecipitationIn,Events,Conditions,WindDirDegrees,DateUTC
12:58 AM,34.5,24.1,66,30.10,10.0,WSW,3.5,-,N/A,,Clear,240,2013-12-01 07:58:00
1:58 AM,32.0,23.5,71,30.11,10.0,SW,4.6,-,N/A,,Partly Cloudy,220,2013-12-01 08:58:00
2:58 AM,32.0,24.4,74,30.11,10.0,WSW,5.8,-,N/A,,Overcast,250,2013-12-01 09:58:00
3:58 AM,35.6,25.9,68,30.08,10.0,West,4.6,-,N/A,,Mostly Cloudy,260,2013-12-01 10:58:00
4:58 AM,37.0,26.4,65,30.07,10.0,WSW,8.1,-,N/A,,Scattered Clouds,250,2013-12-01 11:58:00
5:58 AM,36.5,26.2,66,30.07,10.0,West,4.6,-,N/A,,Scattered Clouds,280,2013-12-01 12:58:00
6:58 AM,35.1,26.6,71,30.07,10.0,West,6.9,-,N/A,,Overcast,280,2013-12-01 13:58:00
7:58 AM,39.6,27.1,61,30.07,10.0,West,5.8,-,N/A,,Overcast,280,2013-12-01 14:58:00
8:58 AM,43.0,27.5,54,30.04,10.0,West,3.5,-,N/A,,Mostly Cloudy,270,2013-12-01 15:58:00
9:58 AM,47.5,29.5,50,30.02,10.0,Calm,Calm,-,N/A,,Partly Cloudy,0,2013-12-01 16:58:00
10:58 AM,52.2,28.0,39,29.97,10.0,SW,3.5,-,N/A,,Clear,220,2013-12-01 17:58:00
11:58 AM,54.5,27.3,35,29.92,10.0,Calm,Calm,-,N/A,,Mostly Cloudy,0,2013-12-01 18:58:00
12:58 PM,55.8,27.1,33,29.89,10.0,Calm,Calm,-,N/A,,Scattered Clouds,0,2013-12-01 19:58:00
1:58 PM,52.5,29.5,41,29.85,10.0,SE,9.2,-,N/A,,Mostly Cloudy,130,2013-12-01 20:58:00
2:58 PM,51.1,30.7,46,29.82,10.0,SE,5.8,-,N/A,,Clear,140,2013-12-01 21:58:00
3:58 PM,46.9,28.9,50,29.80,10.0,SSE,5.8,-,N/A,,Clear,160,2013-12-01 22:58:00
4:58 PM,45.5,27.5,49,29.78,10.0,SW,6.9,-,N/A,,Overcast,220,2013-12-01 23:58:00
5:58 PM,44.8,26.4,49,29.76,10.0,WSW,2.3,-,N/A,,Partly Cloudy,250,2013-12-02 00:58:00
6:58 PM,40.5,25.9,56,29.74,10.0,Calm,Calm,-,N/A,,Clear,0,2013-12-02 01:58:00
7:58 PM,42.4,26.2,53,29.71,10.0,WSW,3.5,-,N/A,,Overcast,250,2013-12-02 02:58:00
8:58 PM,35.2,25.2,67,29.72,10.0,WSW,6.9,-,N/A,,Mostly Cloudy,240,2013-12-02 03:58:00
9:58 PM,37.6,27.1,66,29.68,10.0,WNW,5.8,-,N/A,,Overcast,290,2013-12-02 04:58:00
10:58 PM,34.3,25.2,69,29.69,10.0,West,8.1,-,N/A,,Partly Cloudy,280,2013-12-02 05:58:00
11:58 PM,34.7,26.4,72,29.67,10.0,West,4.6,-,N/A,,Mostly Cloudy,260,2013-12-02 06:58:00